START_TIME,STEP,MOV.,P1,t_acc.,E44,t_acc.,A3,t_acc.,P10,t_acc.
1979-03-06 18:00:20.860 ,1,0,10.,1.2,0.,1.2,0.,1.2,0.,1.2
1979-03-06 18:00:22.060 ,1,0,3.,1.2,0.,1.2,0.,1.2,0.,1.2
1979-03-06 18:00:23.260 ,1,0,6.,1.2,0.,1.2,0.,1.2,0.,1.2
1979-03-06 18:00:24.460 ,1,0,7.,1.2,0.,1.2,1.,1.2,1.,1.2
1979-03-06 18:00:25.660 ,1,0,4.,1.2,0.,1.2,0.,1.2,1.,1.2
1979-03-06 18:00:26.860 ,1,0,7.,1.2,0.,1.2,0.,1.2,0.,1.2
1979-03-06 18:00:28.060 ,1,0,6.,1.2,0.,1.2,0.,1.2,0.,1.2
1979-03-06 18:00:29.260 ,1,0,,0,,0,,0,,0
1979-03-06 18:00:30.460 ,1,0,9.,1.2,0.,1.2,0.,1.2,0.,1.2
1979-03-06 18:00:31.660 ,1,0,6.,1.2,0.,1.2,0.,1.2,0.,1.2
1979-03-06 18:00:32.860 ,1,0,8.,1.2,0.,1.2,0.,1.2,0.,1.2
1979-03-06 18:00:34.060 ,1,0,8.,1.2,0.,1.2,1.,1.2,1.,1.2
1979-03-06 18:00:35.260 ,1,0,12.,1.2,0.,1.2,0.,1.2,0.,1.2
1979-03-06 18:00:36.460 ,1,0,9.,1.2,0.,1.2,0.,1.2,0.,1.2
1979-03-06 18:00:37.660 ,1,0,9.,1.2,0.,1.2,0.,1.2,0.,1.2
1979-03-06 18:00:38.860 ,1,0,11.,1.2,0.,1.2,0.,1.2,0.,1.2
1979-03-06 18:00:40.060 ,1,0,9.,1.2,0.,1.2,0.,1.2,0.,1.2
1979-03-06 18:00:41.260 ,1,0,9.,1.2,0.,1.2,0.,1.2,0.,1.2
1979-03-06 18:00:42.460 ,1,0,7.,1.2,0.,1.2,0.,1.2,0.,1.2
1979-03-06 18:00:43.660 ,1,0,2.,1.2,0.,1.2,0.,1.2,0.,1.2
1979-03-06 18:00:44.860 ,0,0,8.,1.2,0.,1.2,0.,1.2,0.,1.2
1979-03-06 18:00:46.060 ,0,0,7.,1.2,0.,1.2,0.,1.2,0.,1.2
1979-03-06 18:00:47.260 ,0,0,6.,1.2,0.,1.2,1.,1.2,0.,1.2
1979-03-06 18:00:48.460 ,0,0,8.,1.2,0.,1.2,0.,1.2,0.,1.2
1979-03-06 18:00:49.660 ,0,0,6.,1.2,0.,1.2,0.,1.2,0.,1.2
1979-03-06 18:00:50.860 ,0,0,7.,1.2,0.,1.2,3.,1.2,0.,1.2
1979-03-06 18:00:52.060 ,0,0,6.,1.2,0.,1.2,0.,1.2,0.,1.2
1979-03-06 18:00:53.260 ,0,0,7.,1.2,0.,1.2,0.,1.2,0.,1.2
1979-03-06 18:00:54.460 ,0,0,10.,1.2,0.,1.2,0.,1.2,0.,1.2
1979-03-06 18:00:55.660 ,0,0,9.,1.2,0.,1.2,0.,1.2,0.,1.2
1979-03-06 18:00:56.860 ,0,0,4.,1.2,0.,1.2,0.,1.2,0.,1.2
1979-03-06 18:00:58.060 ,0,0,9.,1.2,0.,1.2,0.,1.2,0.,1.2
1979-03-06 18:00:59.260 ,0,0,3.,1.2,0.,1.2,0.,1.2,0.,1.2
1979-03-06 18:01:00.460 ,0,0,10.,1.2,0.,1.2,0.,1.2,0.,1.2
1979-03-06 18:01:01.660 ,0,0,6.,1.2,0.,1.2,0.,1.2,0.,1.2
1979-03-06 18:01:02.860 ,0,0,3.,1.2,0.,1.2,0.,1.2,0.,1.2
1979-03-06 18:01:04.060 ,0,0,8.,1.2,0.,1.2,0.,1.2,0.,1.2
1979-03-06 18:01:05.260 ,0,0,7.,1.2,0.,1.2,0.,1.2,0.,1.2
1979-03-06 18:01:06.460 ,0,0,11.,1.2,0.,1.2,0.,1.2,0.,1.2
1979-03-06 18:01:07.660 ,0,0,4.,1.2,0.,1.2,0.,1.2,0.,1.2
1979-03-06 18:01:08.860 ,0,0,10.,1.2,0.,1.2,0.,1.2,0.,1.2
1979-03-06 18:01:10.060 ,0,0,8.,1.2,0.,1.2,0.,1.2,0.,1.2
1979-03-06 18:01:11.260 ,0,0,4.,1.2,0.,1.2,0.,1.2,0.,1.2
1979-03-06 18:01:12.460 ,0,0,3.,1.2,0.,1.2,0.,1.2,1.,1.2
1979-03-06 18:01:13.660 ,0,0,4.,1.2,0.,1.2,0.,1.2,0.,1.2
1979-03-06 18:01:14.860 ,0,0,5.,1.2,0.,1.2,0.,1.2,0.,1.2
1979-03-06 18:01:16.060 ,0,0,5.,1.2,0.,1.2,0.,1.2,0.,1.2
1979-03-06 18:01:17.260 ,0,0,13.,1.2,0.,1.2,0.,1.2,1.,1.2
1979-03-06 18:01:18.460 ,0,0,10.,1.2,0.,1.2,0.,1.2,0.,1.2
1979-03-06 18:01:19.660 ,0,0,6.,1.2,0.,1.2,0.,1.2,0.,1.2
1979-03-06 18:01:20.860 ,0,0,5.,1.2,0.,1.2,1.,1.2,0.,1.2
1979-03-06 18:01:22.060 ,0,0,4.,1.2,0.,1.2,0.,1.2,1.,1.2
1979-03-06 18:01:23.260 ,0,0,8.,1.2,0.,1.2,0.,1.2,1.,1.2
1979-03-06 18:01:24.460 ,0,0,8.,1.2,0.,1.2,0.,1.2,0.,1.2
1979-03-06 18:01:25.660 ,0,0,4.,1.2,0.,1.2,0.,1.2,1.,1.2
1979-03-06 18:01:26.860 ,0,0,9.,1.2,0.,1.2,0.,1.2,0.,1.2
1979-03-06 18:01:28.060 ,0,0,6.,1.2,0.,1.2,0.,1.2,0.,1.2
1979-03-06 18:01:29.260 ,0,0,8.,1.2,0.,1.2,0.,1.2,0.,1.2
1979-03-06 18:01:30.460 ,0,0,5.,1.2,0.,1.2,0.,1.2,1.,1.2
1979-03-06 18:01:31.660 ,0,0,4.,1.2,0.,1.2,0.,1.2,0.,1.2
1979-03-06 18:01:32.860 ,1,0,7.,1.2,0.,1.2,0.,1.2,0.,1.2
1979-03-06 18:01:34.060 ,1,0,5.,1.2,0.,1.2,0.,1.2,0.,1.2
1979-03-06 18:01:35.260 ,1,0,8.,1.2,0.,1.2,0.,1.2,0.,1.2
1979-03-06 18:01:36.460 ,1,0,9.,1.2,0.,1.2,0.,1.2,0.,1.2
1979-03-06 18:01:37.660 ,1,0,7.,1.2,0.,1.2,0.,1.2,0.,1.2
1979-03-06 18:01:38.860 ,1,0,2.,1.2,0.,1.2,0.,1.2,0.,1.2
1979-03-06 18:01:40.060 ,1,0,4.,1.2,0.,1.2,0.,1.2,0.,1.2
1979-03-06 18:01:41.260 ,1,0,3.,1.2,0.,1.2,0.,1.2,1.,1.2
1979-03-06 18:01:42.460 ,1,0,5.,1.2,0.,1.2,1.,1.2,0.,1.2
1979-03-06 18:01:43.660 ,1,0,8.,1.2,0.,1.2,0.,1.2,2.,1.2
1979-03-06 18:01:44.860 ,1,0,7.,1.2,0.,1.2,0.,1.2,2.,1.2
1979-03-06 18:01:46.060 ,1,0,7.,1.2,0.,1.2,0.,1.2,0.,1.2
1979-03-06 18:01:47.260 ,1,0,8.,1.2,0.,1.2,0.,1.2,0.,1.2
1979-03-06 18:01:48.460 ,1,0,5.,1.2,0.,1.2,1.,1.2,0.,1.2
1979-03-06 18:01:49.660 ,1,0,7.,1.2,0.,1.2,0.,1.2,0.,1.2
1979-03-06 18:01:50.860 ,1,0,11.,1.2,0.,1.2,0.,1.2,1.,1.2
1979-03-06 18:01:52.060 ,1,0,2.,1.2,0.,1.2,0.,1.2,1.,1.2
1979-03-06 18:01:53.260 ,1,0,8.,1.2,0.,1.2,0.,1.2,0.,1.2
1979-03-06 18:01:54.460 ,1,0,8.,1.2,0.,1.2,0.,1.2,0.,1.2
1979-03-06 18:01:55.660 ,1,0,6.,1.2,0.,1.2,0.,1.2,0.,1.2
1979-03-06 18:01:56.860 ,2,0,5.,1.2,0.,1.2,2.,1.2,0.,1.2
1979-03-06 18:01:58.060 ,2,0,7.,1.2,0.,1.2,0.,1.2,0.,1.2
1979-03-06 18:01:59.260 ,2,0,6.,1.2,0.,1.2,0.,1.2,0.,1.2
1979-03-06 18:02:00.460 ,2,0,7.,1.2,0.,1.2,0.,1.2,0.,1.2
1979-03-06 18:02:01.660 ,2,0,4.,1.2,0.,1.2,0.,1.2,0.,1.2
1979-03-06 18:02:02.860 ,2,0,9.,1.2,0.,1.2,0.,1.2,0.,1.2
1979-03-06 18:02:04.060 ,2,0,4.,1.2,0.,1.2,0.,1.2,0.,1.2
1979-03-06 18:02:05.260 ,2,0,5.,1.2,0.,1.2,0.,1.2,0.,1.2
1979-03-06 18:02:06.460 ,2,0,5.,1.2,0.,1.2,0.,1.2,0.,1.2
1979-03-06 18:02:07.660 ,2,0,10.,1.2,0.,1.2,0.,1.2,0.,1.2
1979-03-06 18:02:08.860 ,2,0,6.,1.2,0.,1.2,0.,1.2,0.,1.2
1979-03-06 18:02:10.060 ,2,0,6.,1.2,0.,1.2,0.,1.2,0.,1.2
1979-03-06 18:02:11.260 ,2,0,5.,1.2,0.,1.2,0.,1.2,0.,1.2
1979-03-06 18:02:12.460 ,2,0,3.,1.2,0.,1.2,0.,1.2,0.,1.2
1979-03-06 18:02:13.660 ,2,0,11.,1.2,0.,1.2,0.,1.2,0.,1.2
1979-03-06 18:02:14.860 ,2,0,4.,1.2,0.,1.2,1.,1.2,0.,1.2
1979-03-06 18:02:16.060 ,2,0,8.,1.2,0.,1.2,1.,1.2,0.,1.2
1979-03-06 18:02:17.260 ,2,0,10.,1.2,0.,1.2,0.,1.2,0.,1.2
1979-03-06 18:02:18.460 ,2,0,10.,1.2,0.,1.2,0.,1.2,0.,1.2
1979-03-06 18:02:19.660 ,2,0,7.,1.2,0.,1.2,0.,1.2,0.,1.2
1979-03-06 18:02:20.860 ,3,0,7.,1.2,0.,1.2,0.,1.2,0.,1.2
1979-03-06 18:02:22.060 ,3,0,5.,1.2,0.,1.2,0.,1.2,0.,1.2
1979-03-06 18:02:23.260 ,3,0,8.,1.2,0.,1.2,0.,1.2,0.,1.2
1979-03-06 18:02:24.460 ,3,0,3.,1.2,0.,1.2,0.,1.2,0.,1.2
1979-03-06 18:02:25.660 ,3,0,8.,1.2,0.,1.2,0.,1.2,0.,1.2
1979-03-06 18:02:26.860 ,3,0,4.,1.2,0.,1.2,0.,1.2,0.,1.2
1979-03-06 18:02:28.060 ,3,0,8.,1.2,0.,1.2,1.,1.2,1.,1.2
1979-03-06 18:02:29.260 ,3,0,1.,1.2,0.,1.2,0.,1.2,1.,1.2
1979-03-06 18:02:30.460 ,3,0,5.,1.2,0.,1.2,0.,1.2,0.,1.2
1979-03-06 18:02:31.660 ,3,0,7.,1.2,0.,1.2,0.,1.2,0.,1.2
1979-03-06 18:02:32.860 ,3,0,3.,1.2,0.,1.2,0.,1.2,0.,1.2
1979-03-06 18:02:34.060 ,3,0,8.,1.2,0.,1.2,0.,1.2,0.,1.2
1979-03-06 18:02:35.260 ,3,0,6.,1.2,0.,1.2,0.,1.2,0.,1.2
1979-03-06 18:02:36.460 ,3,0,12.,1.2,0.,1.2,0.,1.2,0.,1.2
1979-03-06 18:02:37.660 ,3,0,9.,1.2,0.,1.2,0.,1.2,1.,1.2
1979-03-06 18:02:38.860 ,3,0,9.,1.2,0.,1.2,0.,1.2,0.,1.2
1979-03-06 18:02:40.060 ,3,0,7.,1.2,0.,1.2,0.,1.2,0.,1.2
1979-03-06 18:02:41.260 ,3,0,5.,1.2,0.,1.2,0.,1.2,1.,1.2
1979-03-06 18:02:42.460 ,3,0,6.,1.2,0.,1.2,2.,1.2,0.,1.2
1979-03-06 18:02:43.660 ,3,0,8.,1.2,0.,1.2,1.,1.2,0.,1.2
1979-03-06 18:02:44.860 ,4,0,7.,1.2,0.,1.2,0.,1.2,0.,1.2
1979-03-06 18:02:46.060 ,4,0,5.,1.2,0.,1.2,0.,1.2,0.,1.2
1979-03-06 18:02:47.260 ,4,0,5.,1.2,0.,1.2,0.,1.2,1.,1.2
1979-03-06 18:02:48.460 ,4,0,8.,1.2,0.,1.2,0.,1.2,1.,1.2
1979-03-06 18:02:49.660 ,4,0,3.,1.2,0.,1.2,0.,1.2,0.,1.2
1979-03-06 18:02:50.860 ,4,0,8.,1.2,0.,1.2,0.,1.2,0.,1.2
1979-03-06 18:02:52.060 ,4,0,9.,1.2,0.,1.2,0.,1.2,0.,1.2
1979-03-06 18:02:53.260 ,4,0,9.,1.2,0.,1.2,0.,1.2,0.,1.2
1979-03-06 18:02:54.460 ,4,0,6.,1.2,0.,1.2,0.,1.2,0.,1.2
1979-03-06 18:02:55.660 ,4,0,9.,1.2,0.,1.2,0.,1.2,0.,1.2
1979-03-06 18:02:56.860 ,4,0,8.,1.2,0.,1.2,1.,1.2,2.,1.2
1979-03-06 18:02:58.060 ,4,0,6.,1.2,0.,1.2,0.,1.2,2.,1.2
1979-03-06 18:02:59.260 ,4,0,6.,1.2,0.,1.2,0.,1.2,0.,1.2
1979-03-06 18:03:00.460 ,4,0,4.,1.2,0.,1.2,0.,1.2,1.,1.2
1979-03-06 18:03:01.660 ,4,0,6.,1.2,0.,1.2,0.,1.2,1.,1.2
1979-03-06 18:03:02.860 ,4,0,4.,1.2,0.,1.2,0.,1.2,0.,1.2
1979-03-06 18:03:04.060 ,4,0,7.,1.2,0.,1.2,1.,1.2,0.,1.2
1979-03-06 18:03:05.260 ,4,0,3.,1.2,0.,1.2,0.,1.2,0.,1.2
1979-03-06 18:03:06.460 ,4,0,5.,1.2,0.,1.2,0.,1.2,0.,1.2
1979-03-06 18:03:07.660 ,4,0,5.,1.2,0.,1.2,0.,1.2,0.,1.2
1979-03-06 18:03:08.860 ,5,0,9.,1.2,0.,1.2,0.,1.2,1.,1.2
1979-03-06 18:03:10.060 ,5,0,7.,1.2,0.,1.2,0.,1.2,0.,1.2
1979-03-06 18:03:11.260 ,5,0,6.,1.2,0.,1.2,2.,1.2,0.,1.2
1979-03-06 18:03:12.460 ,5,0,9.,1.2,0.,1.2,0.,1.2,1.,1.2
1979-03-06 18:03:13.660 ,5,0,5.,1.2,0.,1.2,0.,1.2,0.,1.2
1979-03-06 18:03:14.860 ,5,0,5.,1.2,0.,1.2,0.,1.2,1.,1.2
1979-03-06 18:03:16.060 ,5,0,4.,1.2,0.,1.2,1.,1.2,1.,1.2
1979-03-06 18:03:17.260 ,5,0,5.,1.2,0.,1.2,0.,1.2,0.,1.2
1979-03-06 18:03:18.460 ,5,0,7.,1.2,0.,1.2,0.,1.2,0.,1.2
1979-03-06 18:03:19.660 ,5,0,8.,1.2,0.,1.2,0.,1.2,0.,1.2
1979-03-06 18:03:20.860 ,5,0,8.,1.2,0.,1.2,0.,1.2,1.,1.2
1979-03-06 18:03:22.060 ,5,0,7.,1.2,0.,1.2,0.,1.2,0.,1.2
1979-03-06 18:03:23.260 ,5,0,8.,1.2,0.,1.2,0.,1.2,0.,1.2
1979-03-06 18:03:24.460 ,5,0,6.,1.2,0.,1.2,0.,1.2,1.,1.2
1979-03-06 18:03:25.660 ,5,0,7.,1.2,0.,1.2,1.,1.2,0.,1.2
1979-03-06 18:03:26.860 ,5,0,5.,1.2,0.,1.2,0.,1.2,0.,1.2
1979-03-06 18:03:28.060 ,5,0,,0,,0,,0,,0
1979-03-06 18:03:29.260 ,5,0,10.,1.2,0.,1.2,0.,1.2,0.,1.2
1979-03-06 18:03:30.460 ,5,0,5.,1.2,0.,1.2,0.,1.2,1.,1.2
1979-03-06 18:03:31.660 ,5,0,9.,1.2,0.,1.2,0.,1.2,1.,1.2
1979-03-06 18:03:32.860 ,6,0,9.,1.2,0.,1.2,0.,1.2,0.,1.2
1979-03-06 18:03:34.060 ,6,0,3.,1.2,0.,1.2,0.,1.2,0.,1.2
1979-03-06 18:03:35.260 ,6,0,8.,1.2,0.,1.2,0.,1.2,1.,1.2
1979-03-06 18:03:36.460 ,6,0,6.,1.2,0.,1.2,0.,1.2,0.,1.2
1979-03-06 18:03:37.660 ,6,0,6.,1.2,0.,1.2,1.,1.2,0.,1.2
1979-03-06 18:03:38.860 ,6,0,9.,1.2,0.,1.2,1.,1.2,0.,1.2
1979-03-06 18:03:40.060 ,6,0,2.,1.2,0.,1.2,0.,1.2,0.,1.2
1979-03-06 18:03:41.260 ,6,0,8.,1.2,0.,1.2,0.,1.2,0.,1.2
1979-03-06 18:03:42.460 ,6,0,3.,1.2,0.,1.2,0.,1.2,0.,1.2
1979-03-06 18:03:43.660 ,6,0,5.,1.2,0.,1.2,0.,1.2,1.,1.2
1979-03-06 18:03:44.860 ,6,0,7.,1.2,0.,1.2,0.,1.2,0.,1.2
1979-03-06 18:03:46.060 ,6,0,10.,1.2,0.,1.2,0.,1.2,0.,1.2
1979-03-06 18:03:47.260 ,6,0,11.,1.2,0.,1.2,0.,1.2,0.,1.2
1979-03-06 18:03:48.460 ,6,0,3.,1.2,0.,1.2,0.,1.2,2.,1.2
1979-03-06 18:03:49.660 ,6,0,1.,1.2,0.,1.2,0.,1.2,2.,1.2
1979-03-06 18:03:50.860 ,6,0,7.,1.2,0.,1.2,0.,1.2,0.,1.2
1979-03-06 18:03:52.060 ,6,0,5.,1.2,0.,1.2,0.,1.2,0.,1.2
1979-03-06 18:03:53.260 ,6,0,2.,1.2,0.,1.2,1.,1.2,0.,1.2
1979-03-06 18:03:54.460 ,6,0,2.,1.2,0.,1.2,0.,1.2,0.,1.2
1979-03-06 18:03:55.660 ,6,0,5.,1.2,0.,1.2,0.,1.2,1.,1.2
1979-03-06 18:03:56.860 ,7,0,7.,1.2,0.,1.2,0.,1.2,0.,1.2
1979-03-06 18:03:58.060 ,7,0,5.,1.2,0.,1.2,0.,1.2,0.,1.2
1979-03-06 18:03:59.260 ,7,0,5.,1.2,0.,1.2,0.,1.2,0.,1.2
1979-03-06 18:04:00.460 ,7,0,9.,1.2,0.,1.2,1.,1.2,0.,1.2
1979-03-06 18:04:01.660 ,7,0,3.,1.2,0.,1.2,0.,1.2,0.,1.2
1979-03-06 18:04:02.860 ,7,0,2.,1.2,0.,1.2,1.,1.2,0.,1.2
1979-03-06 18:04:04.060 ,7,0,1.,1.2,0.,1.2,5.,1.2,0.,1.2
1979-03-06 18:04:05.260 ,7,0,0.,1.2,0.,1.2,4.,1.2,0.,1.2
1979-03-06 18:04:06.460 ,7,0,0.,1.2,0.,1.2,5.,1.2,0.,1.2
1979-03-06 18:04:07.660 ,7,0,0.,1.2,0.,1.2,11.,1.2,0.,1.2
1979-03-06 18:04:08.860 ,7,0,0.,1.2,0.,1.2,2.,1.2,0.,1.2
1979-03-06 18:04:10.060 ,7,0,1.,1.2,0.,1.2,7.,1.2,0.,1.2
1979-03-06 18:04:11.260 ,7,0,0.,1.2,0.,1.2,5.,1.2,0.,1.2
1979-03-06 18:04:12.460 ,7,0,0.,1.2,0.,1.2,1.,1.2,0.,1.2
1979-03-06 18:04:13.660 ,7,0,0.,1.2,0.,1.2,5.,1.2,0.,1.2
1979-03-06 18:04:14.860 ,7,0,0.,1.2,0.,1.2,6.,1.2,1.,1.2
1979-03-06 18:04:16.060 ,7,0,2.,1.2,0.,1.2,3.,1.2,0.,1.2
1979-03-06 18:04:17.260 ,7,0,0.,1.2,0.,1.2,1.,1.2,0.,1.2
1979-03-06 18:04:18.460 ,7,0,0.,1.2,0.,1.2,5.,1.2,0.,1.2
1979-03-06 18:04:19.660 ,7,0,1.,1.2,0.,1.2,5.,1.2,0.,1.2
1979-03-06 18:04:20.860 ,7,0,0.,1.2,0.,1.2,2.,1.2,0.,1.2
1979-03-06 18:04:22.060 ,7,0,0.,1.2,0.,1.2,4.,1.2,0.,1.2
1979-03-06 18:04:23.260 ,7,0,0.,1.2,0.,1.2,4.,1.2,0.,1.2
1979-03-06 18:04:24.460 ,7,0,0.,1.2,0.,1.2,9.,1.2,0.,1.2
1979-03-06 18:04:25.660 ,7,0,0.,1.2,0.,1.2,9.,1.2,0.,1.2
1979-03-06 18:04:26.860 ,7,0,0.,1.2,0.,1.2,7.,1.2,0.,1.2
1979-03-06 18:04:28.060 ,7,0,0.,1.2,0.,1.2,4.,1.2,0.,1.2
1979-03-06 18:04:29.260 ,7,0,0.,1.2,0.,1.2,2.,1.2,0.,1.2
1979-03-06 18:04:30.460 ,7,0,0.,1.2,0.,1.2,3.,1.2,0.,1.2
1979-03-06 18:04:31.660 ,7,0,0.,1.2,0.,1.2,8.,1.2,0.,1.2
1979-03-06 18:04:32.860 ,7,0,1.,1.2,0.,1.2,3.,1.2,0.,1.2
1979-03-06 18:04:34.060 ,7,0,0.,1.2,0.,1.2,8.,1.2,0.,1.2
1979-03-06 18:04:35.260 ,7,0,0.,1.2,0.,1.2,10.,1.2,0.,1.2
1979-03-06 18:04:36.460 ,7,0,0.,1.2,0.,1.2,3.,1.2,0.,1.2
1979-03-06 18:04:37.660 ,7,0,1.,1.2,0.,1.2,2.,1.2,0.,1.2
1979-03-06 18:04:38.860 ,7,0,0.,1.2,0.,1.2,2.,1.2,0.,1.2
1979-03-06 18:04:40.060 ,7,0,0.,1.2,0.,1.2,7.,1.2,0.,1.2
1979-03-06 18:04:41.260 ,7,0,0.,1.2,0.,1.2,8.,1.2,0.,1.2
1979-03-06 18:04:42.460 ,7,0,0.,1.2,0.,1.2,2.,1.2,0.,1.2
1979-03-06 18:04:43.660 ,7,0,0.,1.2,0.,1.2,8.,1.2,0.,1.2
1979-03-06 18:04:44.860 ,6,0,0.,1.2,0.,1.2,1.,1.2,0.,1.2
1979-03-06 18:04:46.060 ,6,0,1.,1.2,0.,1.2,6.,1.2,0.,1.2
1979-03-06 18:04:47.260 ,6,0,0.,1.2,0.,1.2,5.,1.2,0.,1.2
1979-03-06 18:04:48.460 ,6,0,0.,1.2,0.,1.2,2.,1.2,0.,1.2
1979-03-06 18:04:49.660 ,6,0,2.,1.2,0.,1.2,8.,1.2,0.,1.2
1979-03-06 18:04:50.860 ,6,0,1.,1.2,0.,1.2,3.,1.2,0.,1.2
1979-03-06 18:04:52.060 ,6,0,4.,1.2,0.,1.2,0.,1.2,0.,1.2
1979-03-06 18:04:53.260 ,6,0,6.,1.2,0.,1.2,0.,1.2,0.,1.2
1979-03-06 18:04:54.460 ,6,0,2.,1.2,0.,1.2,0.,1.2,1.,1.2
1979-03-06 18:04:55.660 ,6,0,3.,1.2,0.,1.2,0.,1.2,0.,1.2
1979-03-06 18:04:56.860 ,6,0,6.,1.2,0.,1.2,0.,1.2,0.,1.2
1979-03-06 18:04:58.060 ,6,0,10.,1.2,0.,1.2,0.,1.2,0.,1.2
1979-03-06 18:04:59.260 ,6,0,2.,1.2,0.,1.2,0.,1.2,1.,1.2
1979-03-06 18:05:00.460 ,6,0,7.,1.2,0.,1.2,0.,1.2,0.,1.2
1979-03-06 18:05:01.660 ,6,0,2.,1.2,0.,1.2,0.,1.2,0.,1.2
1979-03-06 18:05:02.860 ,6,0,8.,1.2,0.,1.2,0.,1.2,0.,1.2
1979-03-06 18:05:04.060 ,6,0,6.,1.2,0.,1.2,0.,1.2,0.,1.2
1979-03-06 18:05:05.260 ,6,0,1.,1.2,0.,1.2,0.,1.2,1.,1.2
1979-03-06 18:05:06.460 ,6,0,2.,1.2,0.,1.2,0.,1.2,1.,1.2
1979-03-06 18:05:07.660 ,6,0,1.,1.2,0.,1.2,0.,1.2,0.,1.2
1979-03-06 18:05:08.860 ,5,0,12.,1.2,0.,1.2,1.,1.2,0.,1.2
1979-03-06 18:05:10.060 ,5,0,5.,1.2,0.,1.2,0.,1.2,0.,1.2
1979-03-06 18:05:11.260 ,5,0,9.,1.2,0.,1.2,0.,1.2,0.,1.2
1979-03-06 18:05:12.460 ,5,0,2.,1.2,0.,1.2,1.,1.2,0.,1.2
1979-03-06 18:05:13.660 ,5,0,5.,1.2,0.,1.2,0.,1.2,1.,1.2
1979-03-06 18:05:14.860 ,5,0,8.,1.2,0.,1.2,0.,1.2,1.,1.2
1979-03-06 18:05:16.060 ,5,0,7.,1.2,0.,1.2,0.,1.2,0.,1.2
1979-03-06 18:05:17.260 ,5,0,8.,1.2,0.,1.2,0.,1.2,1.,1.2
1979-03-06 18:05:18.460 ,5,0,5.,1.2,0.,1.2,0.,1.2,0.,1.2
1979-03-06 18:05:19.660 ,5,0,3.,1.2,0.,1.2,0.,1.2,0.,1.2
1979-03-06 18:05:20.860 ,5,0,0.,1.2,0.,1.2,0.,1.2,1.,1.2
1979-03-06 18:05:22.060 ,5,0,4.,1.2,0.,1.2,1.,1.2,2.,1.2
1979-03-06 18:05:23.260 ,5,0,8.,1.2,0.,1.2,0.,1.2,0.,1.2
1979-03-06 18:05:24.460 ,5,0,6.,1.2,0.,1.2,0.,1.2,0.,1.2
1979-03-06 18:05:25.660 ,5,0,6.,1.2,0.,1.2,0.,1.2,1.,1.2
1979-03-06 18:05:26.860 ,5,0,6.,1.2,0.,1.2,0.,1.2,0.,1.2
1979-03-06 18:05:28.060 ,5,0,7.,1.2,0.,1.2,0.,1.2,0.,1.2
1979-03-06 18:05:29.260 ,5,0,6.,1.2,0.,1.2,0.,1.2,1.,1.2
1979-03-06 18:05:30.460 ,5,0,7.,1.2,0.,1.2,0.,1.2,0.,1.2
1979-03-06 18:05:31.660 ,5,0,8.,1.2,0.,1.2,0.,1.2,0.,1.2
1979-03-06 18:05:32.860 ,4,0,6.,1.2,0.,1.2,0.,1.2,1.,1.2
1979-03-06 18:05:34.060 ,4,0,4.,1.2,0.,1.2,0.,1.2,0.,1.2
1979-03-06 18:05:35.260 ,4,0,8.,1.2,0.,1.2,1.,1.2,0.,1.2
1979-03-06 18:05:36.460 ,4,0,5.,1.2,0.,1.2,1.,1.2,0.,1.2
1979-03-06 18:05:37.660 ,4,0,4.,1.2,0.,1.2,0.,1.2,0.,1.2
1979-03-06 18:05:38.860 ,4,0,3.,1.2,0.,1.2,0.,1.2,0.,1.2
1979-03-06 18:05:40.060 ,4,0,6.,1.2,0.,1.2,0.,1.2,0.,1.2
1979-03-06 18:05:41.260 ,4,0,3.,1.2,0.,1.2,0.,1.2,0.,1.2
1979-03-06 18:05:42.460 ,4,0,7.,1.2,0.,1.2,1.,1.2,0.,1.2
1979-03-06 18:05:43.660 ,4,0,1.,1.2,0.,1.2,0.,1.2,1.,1.2
1979-03-06 18:05:44.860 ,4,0,6.,1.2,0.,1.2,2.,1.2,3.,1.2
1979-03-06 18:05:46.060 ,4,0,3.,1.2,0.,1.2,0.,1.2,0.,1.2
1979-03-06 18:05:47.260 ,4,0,5.,1.2,0.,1.2,1.,1.2,1.,1.2
1979-03-06 18:05:48.460 ,4,0,5.,1.2,0.,1.2,1.,1.2,0.,1.2
1979-03-06 18:05:49.660 ,4,0,5.,1.2,0.,1.2,1.,1.2,0.,1.2
1979-03-06 18:05:50.860 ,4,0,7.,1.2,0.,1.2,0.,1.2,1.,1.2
1979-03-06 18:05:52.060 ,4,0,5.,1.2,0.,1.2,0.,1.2,0.,1.2
1979-03-06 18:05:53.260 ,4,0,6.,1.2,0.,1.2,2.,1.2,0.,1.2
1979-03-06 18:05:54.460 ,4,0,6.,1.2,0.,1.2,1.,1.2,0.,1.2
1979-03-06 18:05:55.660 ,4,0,7.,1.2,0.,1.2,0.,1.2,2.,1.2
1979-03-06 18:05:56.860 ,3,0,8.,1.2,0.,1.2,1.,1.2,1.,1.2
1979-03-06 18:05:58.060 ,3,0,5.,1.2,0.,1.2,0.,1.2,1.,1.2
1979-03-06 18:05:59.260 ,3,0,5.,1.2,0.,1.2,0.,1.2,0.,1.2
1979-03-06 18:06:00.460 ,3,0,6.,1.2,0.,1.2,1.,1.2,0.,1.2
1979-03-06 18:06:01.660 ,3,0,5.,1.2,0.,1.2,1.,1.2,0.,1.2
1979-03-06 18:06:02.860 ,3,0,4.,1.2,0.,1.2,0.,1.2,0.,1.2
1979-03-06 18:06:04.060 ,3,0,4.,1.2,0.,1.2,0.,1.2,0.,1.2
1979-03-06 18:06:05.260 ,3,0,4.,1.2,0.,1.2,0.,1.2,0.,1.2
1979-03-06 18:06:06.460 ,3,0,2.,1.2,0.,1.2,1.,1.2,0.,1.2
1979-03-06 18:06:07.660 ,3,0,7.,1.2,0.,1.2,1.,1.2,1.,1.2
1979-03-06 18:06:08.860 ,3,0,4.,1.2,0.,1.2,0.,1.2,0.,1.2
1979-03-06 18:06:10.060 ,3,0,3.,1.2,0.,1.2,0.,1.2,0.,1.2
1979-03-06 18:06:11.260 ,3,0,4.,1.2,0.,1.2,1.,1.2,2.,1.2
1979-03-06 18:06:12.460 ,3,0,1.,1.2,0.,1.2,1.,1.2,1.,1.2
1979-03-06 18:06:13.660 ,3,0,7.,1.2,0.,1.2,0.,1.2,0.,1.2
1979-03-06 18:06:14.860 ,3,0,5.,1.2,0.,1.2,0.,1.2,0.,1.2
1979-03-06 18:06:16.060 ,3,0,8.,1.2,0.,1.2,0.,1.2,0.,1.2
1979-03-06 18:06:17.260 ,3,0,6.,1.2,0.,1.2,1.,1.2,0.,1.2
1979-03-06 18:06:18.460 ,3,0,9.,1.2,0.,1.2,0.,1.2,0.,1.2
1979-03-06 18:06:19.660 ,3,0,2.,1.2,0.,1.2,0.,1.2,0.,1.2
1979-03-06 18:06:20.860 ,2,0,4.,1.2,0.,1.2,1.,1.2,0.,1.2
1979-03-06 18:06:22.060 ,2,0,1.,1.2,0.,1.2,0.,1.2,1.,1.2
1979-03-06 18:06:23.260 ,2,0,1.,1.2,0.,1.2,0.,1.2,2.,1.2
1979-03-06 18:06:24.460 ,2,0,7.,1.2,0.,1.2,0.,1.2,1.,1.2
1979-03-06 18:06:25.660 ,2,0,7.,1.2,0.,1.2,0.,1.2,1.,1.2
1979-03-06 18:06:26.860 ,2,0,8.,1.2,0.,1.2,0.,1.2,0.,1.2
1979-03-06 18:06:28.060 ,2,0,9.,1.2,0.,1.2,0.,1.2,0.,1.2
1979-03-06 18:06:29.260 ,2,0,7.,1.2,0.,1.2,0.,1.2,0.,1.2
1979-03-06 18:06:30.460 ,2,0,2.,1.2,0.,1.2,0.,1.2,0.,1.2
1979-03-06 18:06:31.660 ,2,0,9.,1.2,0.,1.2,0.,1.2,0.,1.2
1979-03-06 18:06:32.860 ,2,0,9.,1.2,0.,1.2,0.,1.2,0.,1.2
1979-03-06 18:06:34.060 ,2,0,8.,1.2,0.,1.2,1.,1.2,0.,1.2
1979-03-06 18:06:35.260 ,2,0,5.,1.2,0.,1.2,0.,1.2,1.,1.2
1979-03-06 18:06:36.460 ,2,0,6.,1.2,0.,1.2,0.,1.2,0.,1.2
1979-03-06 18:06:37.660 ,2,0,6.,1.2,0.,1.2,0.,1.2,0.,1.2
1979-03-06 18:06:38.860 ,2,0,6.,1.2,0.,1.2,0.,1.2,0.,1.2
1979-03-06 18:06:40.060 ,2,0,5.,1.2,0.,1.2,0.,1.2,0.,1.2
1979-03-06 18:06:41.260 ,2,0,8.,1.2,0.,1.2,0.,1.2,0.,1.2
1979-03-06 18:06:42.460 ,2,0,3.,1.2,0.,1.2,0.,1.2,0.,1.2
1979-03-06 18:06:43.660 ,2,0,6.,1.2,0.,1.2,1.,1.2,0.,1.2
1979-03-06 18:06:44.860 ,1,0,9.,1.2,0.,1.2,0.,1.2,3.,1.2
1979-03-06 18:06:46.060 ,1,0,4.,1.2,0.,1.2,0.,1.2,0.,1.2
1979-03-06 18:06:47.260 ,1,0,7.,1.2,0.,1.2,0.,1.2,1.,1.2
1979-03-06 18:06:48.460 ,1,0,5.,1.2,0.,1.2,0.,1.2,0.,1.2
1979-03-06 18:06:49.660 ,1,0,12.,1.2,0.,1.2,1.,1.2,0.,1.2
1979-03-06 18:06:50.860 ,1,0,9.,1.2,0.,1.2,0.,1.2,2.,1.2
1979-03-06 18:06:52.060 ,1,0,5.,1.2,0.,1.2,0.,1.2,1.,1.2
1979-03-06 18:06:53.260 ,1,0,8.,1.2,0.,1.2,0.,1.2,0.,1.2
1979-03-06 18:06:54.460 ,1,0,9.,1.2,0.,1.2,0.,1.2,0.,1.2
1979-03-06 18:06:55.660 ,1,0,3.,1.2,0.,1.2,0.,1.2,0.,1.2
1979-03-06 18:06:56.860 ,1,0,4.,1.2,0.,1.2,0.,1.2,0.,1.2
1979-03-06 18:06:58.060 ,1,0,3.,1.2,0.,1.2,0.,1.2,0.,1.2
1979-03-06 18:06:59.260 ,1,0,3.,1.2,0.,1.2,0.,1.2,0.,1.2
1979-03-06 18:07:00.460 ,1,0,6.,1.2,0.,1.2,0.,1.2,0.,1.2
1979-03-06 18:07:01.660 ,1,0,5.,1.2,0.,1.2,0.,1.2,0.,1.2
1979-03-06 18:07:02.860 ,1,0,2.,1.2,0.,1.2,0.,1.2,0.,1.2
1979-03-06 18:07:04.060 ,1,0,5.,1.2,0.,1.2,0.,1.2,0.,1.2
1979-03-06 18:07:05.260 ,1,0,9.,1.2,0.,1.2,0.,1.2,0.,1.2
1979-03-06 18:07:06.460 ,1,0,5.,1.2,0.,1.2,0.,1.2,0.,1.2
1979-03-06 18:07:07.660 ,1,0,4.,1.2,0.,1.2,0.,1.2,0.,1.2
1979-03-06 18:07:08.860 ,0,0,4.,1.2,0.,1.2,0.,1.2,1.,1.2
1979-03-06 18:07:10.060 ,0,0,3.,1.2,0.,1.2,1.,1.2,0.,1.2
1979-03-06 18:07:11.260 ,0,0,5.,1.2,0.,1.2,0.,1.2,0.,1.2
1979-03-06 18:07:12.460 ,0,0,6.,1.2,0.,1.2,0.,1.2,0.,1.2
1979-03-06 18:07:13.660 ,0,0,4.,1.2,0.,1.2,1.,1.2,0.,1.2
1979-03-06 18:07:14.860 ,0,0,8.,1.2,0.,1.2,0.,1.2,1.,1.2
1979-03-06 18:07:16.060 ,0,0,6.,1.2,0.,1.2,0.,1.2,0.,1.2
1979-03-06 18:07:17.260 ,0,0,8.,1.2,0.,1.2,0.,1.2,0.,1.2
1979-03-06 18:07:18.460 ,0,0,7.,1.2,0.,1.2,0.,1.2,0.,1.2
1979-03-06 18:07:19.660 ,0,0,2.,1.2,0.,1.2,0.,1.2,0.,1.2
1979-03-06 18:07:20.860 ,0,0,6.,1.2,0.,1.2,0.,1.2,0.,1.2
1979-03-06 18:07:22.060 ,0,0,3.,1.2,0.,1.2,0.,1.2,0.,1.2
1979-03-06 18:07:23.260 ,0,0,6.,1.2,0.,1.2,0.,1.2,2.,1.2
1979-03-06 18:07:24.460 ,0,0,5.,1.2,0.,1.2,0.,1.2,0.,1.2
1979-03-06 18:07:25.660 ,0,0,5.,1.2,0.,1.2,0.,1.2,0.,1.2
1979-03-06 18:07:26.860 ,0,0,6.,1.2,0.,1.2,0.,1.2,0.,1.2
1979-03-06 18:07:28.060 ,0,0,6.,1.2,0.,1.2,0.,1.2,0.,1.2
1979-03-06 18:07:29.260 ,0,0,6.,1.2,0.,1.2,0.,1.2,0.,1.2
1979-03-06 18:07:30.460 ,0,0,6.,1.2,0.,1.2,0.,1.2,0.,1.2
1979-03-06 18:07:31.660 ,0,0,5.,1.2,0.,1.2,0.,1.2,0.,1.2
1979-03-06 18:07:32.860 ,0,0,4.,1.2,0.,1.2,0.,1.2,0.,1.2
1979-03-06 18:07:34.060 ,0,0,7.,1.2,0.,1.2,0.,1.2,0.,1.2
1979-03-06 18:07:35.260 ,0,0,4.,1.2,0.,1.2,0.,1.2,0.,1.2
1979-03-06 18:07:36.460 ,0,0,6.,1.2,0.,1.2,0.,1.2,0.,1.2
1979-03-06 18:07:37.660 ,0,0,3.,1.2,0.,1.2,0.,1.2,0.,1.2
1979-03-06 18:07:38.860 ,0,0,3.,1.2,0.,1.2,0.,1.2,0.,1.2
1979-03-06 18:07:40.060 ,0,0,6.,1.2,0.,1.2,0.,1.2,0.,1.2
1979-03-06 18:07:41.260 ,0,0,7.,1.2,0.,1.2,0.,1.2,0.,1.2
1979-03-06 18:07:42.460 ,0,0,3.,1.2,0.,1.2,0.,1.2,0.,1.2
1979-03-06 18:07:43.660 ,0,0,10.,1.2,0.,1.2,0.,1.2,1.,1.2
1979-03-06 18:07:44.860 ,0,0,6.,1.2,0.,1.2,0.,1.2,0.,1.2
1979-03-06 18:07:46.060 ,0,0,4.,1.2,0.,1.2,0.,1.2,1.,1.2
1979-03-06 18:07:47.260 ,0,0,6.,1.2,0.,1.2,0.,1.2,0.,1.2
1979-03-06 18:07:48.460 ,0,0,4.,1.2,0.,1.2,0.,1.2,1.,1.2
1979-03-06 18:07:49.660 ,0,0,5.,1.2,0.,1.2,0.,1.2,0.,1.2
1979-03-06 18:07:50.860 ,0,0,3.,1.2,0.,1.2,0.,1.2,1.,1.2
1979-03-06 18:07:52.060 ,0,0,1.,1.2,0.,1.2,0.,1.2,0.,1.2
1979-03-06 18:07:53.260 ,0,0,6.,1.2,0.,1.2,0.,1.2,0.,1.2
1979-03-06 18:07:54.460 ,0,0,3.,1.2,0.,1.2,0.,1.2,0.,1.2
1979-03-06 18:07:55.660 ,0,0,8.,1.2,0.,1.2,0.,1.2,0.,1.2
1979-03-06 18:07:56.860 ,1,0,6.,1.2,0.,1.2,0.,1.2,0.,1.2
1979-03-06 18:07:58.060 ,1,0,9.,1.2,0.,1.2,1.,1.2,0.,1.2
1979-03-06 18:07:59.260 ,1,0,3.,1.2,0.,1.2,0.,1.2,0.,1.2
1979-03-06 18:08:00.460 ,1,0,10.,1.2,0.,1.2,0.,1.2,0.,1.2
1979-03-06 18:08:01.660 ,1,0,5.,1.2,0.,1.2,0.,1.2,0.,1.2
1979-03-06 18:08:02.860 ,1,0,10.,1.2,0.,1.2,0.,1.2,0.,1.2
1979-03-06 18:08:04.060 ,1,0,5.,1.2,0.,1.2,1.,1.2,1.,1.2
1979-03-06 18:08:05.260 ,1,0,1.,1.2,0.,1.2,0.,1.2,0.,1.2
1979-03-06 18:08:06.460 ,1,0,4.,1.2,0.,1.2,0.,1.2,0.,1.2
1979-03-06 18:08:07.660 ,1,0,8.,1.2,0.,1.2,0.,1.2,0.,1.2
1979-03-06 18:08:08.860 ,1,0,4.,1.2,0.,1.2,0.,1.2,0.,1.2
1979-03-06 18:08:10.060 ,1,0,3.,1.2,0.,1.2,3.,1.2,0.,1.2
1979-03-06 18:08:11.260 ,1,0,3.,1.2,0.,1.2,0.,1.2,0.,1.2
1979-03-06 18:08:12.460 ,1,0,7.,1.2,0.,1.2,0.,1.2,1.,1.2
1979-03-06 18:08:13.660 ,1,0,8.,1.2,0.,1.2,0.,1.2,0.,1.2
1979-03-06 18:08:14.860 ,1,0,8.,1.2,0.,1.2,1.,1.2,0.,1.2
1979-03-06 18:08:16.060 ,1,0,8.,1.2,0.,1.2,0.,1.2,0.,1.2
1979-03-06 18:08:17.260 ,1,0,4.,1.2,0.,1.2,0.,1.2,0.,1.2
1979-03-06 18:08:18.460 ,1,0,8.,1.2,0.,1.2,1.,1.2,0.,1.2
1979-03-06 18:08:19.660 ,1,0,6.,1.2,0.,1.2,1.,1.2,3.,1.2
1979-03-06 18:08:20.860 ,2,0,6.,1.2,0.,1.2,0.,1.2,0.,1.2
1979-03-06 18:08:22.060 ,2,0,6.,1.2,0.,1.2,0.,1.2,1.,1.2
1979-03-06 18:08:23.260 ,2,0,5.,1.2,0.,1.2,0.,1.2,1.,1.2
1979-03-06 18:08:24.460 ,2,0,11.,1.2,0.,1.2,0.,1.2,0.,1.2
1979-03-06 18:08:25.660 ,2,0,9.,1.2,0.,1.2,0.,1.2,1.,1.2
1979-03-06 18:08:26.860 ,2,0,6.,1.2,0.,1.2,0.,1.2,0.,1.2
1979-03-06 18:08:28.060 ,2,0,7.,1.2,0.,1.2,0.,1.2,1.,1.2
1979-03-06 18:08:29.260 ,2,0,6.,1.2,0.,1.2,0.,1.2,0.,1.2
1979-03-06 18:08:30.460 ,2,0,4.,1.2,0.,1.2,0.,1.2,0.,1.2
1979-03-06 18:08:31.660 ,2,0,6.,1.2,0.,1.2,1.,1.2,1.,1.2
1979-03-06 18:08:32.860 ,2,0,7.,1.2,0.,1.2,1.,1.2,0.,1.2
1979-03-06 18:08:34.060 ,2,0,3.,1.2,0.,1.2,0.,1.2,1.,1.2